Location: Wildlife_Club
(35.6000°N, 81.4330°W)
Time: 07:27:18
(UTC-04:00)

Tiros 1 despin weight - All Passes

Search period start: 17 June 2019 00:00
Search period end: 27 June 2019 00:00
Orbit: 595 x 642 km, 48.2° (Epoch: 17 June)

Date Brightness Start Highest point End Pass type
(mag) Time Alt. Az. Time Alt. Az. Time Alt. Az.
17 Jun - 00:52:33 10° S 00:56:14 26° SE 00:59:55 10° ENE visible
17 Jun - 02:33:15 10° WSW 02:37:35 51° NNW 02:41:54 10° NE visible
17 Jun - 04:16:45 10° WNW 04:19:52 19° NNW 04:23:01 10° NNE visible
17 Jun - 05:59:48 10° NNW 06:02:44 17° N 06:05:40 10° NE daylight
17 Jun - 07:41:02 10° NW 07:45:12 39° NNE 07:49:24 10° E daylight
17 Jun - 09:22:36 10° WNW 09:26:44 38° SW 09:30:55 10° SSE daylight
18 Jun - 01:08:21 10° SW 01:12:41 55° SE 01:17:00 10° ENE visible
18 Jun - 02:50:28 10° W 02:54:25 31° NNW 02:58:21 10° NE visible
18 Jun - 04:34:15 10° NW 04:37:00 16° N 04:39:47 10° NE visible
18 Jun - 06:16:26 10° NW 06:19:49 21° NNE 06:23:14 10° ENE daylight
18 Jun - 07:57:31 10° NW 08:01:57 70° NE 08:06:25 10° ESE daylight
18 Jun - 09:40:04 10° W 09:43:08 18° SW 09:46:12 10° S daylight
18 Jun - 23:45:16 10° S 23:48:08 17° SE 23:51:00 10° E night (unlit)
19 Jun - 01:24:50 10° WSW 01:29:17 74° NW 01:33:42 10° NE visible
19 Jun - 03:07:57 10° WNW 03:11:22 21° NNW 03:14:48 10° NE visible
19 Jun - 04:51:26 10° NW 04:54:11 16° N 04:56:55 10° NE visible
19 Jun - 06:32:54 10° NW 06:36:48 30° NNE 06:40:45 10° E daylight
19 Jun - 08:14:12 10° WNW 08:18:34 58° SW 08:22:57 10° SE daylight
20 Jun - 00:00:27 10° SSW 00:04:31 35° SE 00:08:34 10° ENE visible
20 Jun - 01:41:49 10° W 01:46:01 40° NNW 01:50:13 10° NE visible
20 Jun - 03:25:31 10° NW 03:28:28 17° N 03:31:24 10° NNE visible
20 Jun - 05:08:13 10° NNW 05:11:18 18° NNE 05:14:25 10° ENE visible
20 Jun - 06:49:21 10° NW 06:53:39 49° NNE 06:57:58 10° ESE daylight
20 Jun - 08:31:14 10° WNW 08:35:01 28° SW 08:38:49 10° SSE daylight
20 Jun - 22:39:10 10° SE 22:40:05 11° SE 22:40:59 10° ESE night (unlit)
21 Jun - 00:16:34 10° SW 00:21:02 75° SE 00:25:27 10° ENE visible
21 Jun - 01:59:09 10° W 02:02:55 26° NNW 02:06:39 10° NE visible
21 Jun - 03:42:54 10° NW 03:45:37 16° N 03:48:19 10° NE visible
21 Jun - 05:24:45 10° NW 05:28:22 24° NNE 05:31:59 10° ENE visible
21 Jun - 07:05:53 10° NW 07:10:20 88° SW 07:14:48 10° SE daylight
21 Jun - 08:49:21 10° WSW 08:51:21 13° SW 08:53:22 10° SSW daylight
21 Jun - 22:52:49 10° S 22:56:23 23° SE 22:59:56 10° E night (unlit)
22 Jun - 00:33:17 10° WSW 00:37:41 57° NNW 00:42:03 10° NE visible
22 Jun - 02:16:43 10° WNW 02:19:56 19° NNW 02:23:08 10° NNE visible
22 Jun - 03:59:55 10° NNW 04:02:47 17° N 04:05:38 10° NE visible
22 Jun - 05:41:12 10° NW 05:45:17 36° NNE 05:49:23 10° E visible
22 Jun - 07:22:41 10° WNW 07:26:52 42° SW 07:31:05 10° SSE daylight
22 Jun - 23:08:29 10° SSW 23:12:49 49° SE 23:17:07 10° ENE visible
23 Jun - 00:50:26 10° W 00:54:29 33° NNW 00:58:30 10° NE visible
23 Jun - 02:34:15 10° NW 02:37:03 16° N 02:39:51 10° NE visible
23 Jun - 04:16:34 10° NNW 04:19:53 20° NNE 04:23:11 10° ENE visible
23 Jun - 05:57:40 10° NW 06:02:04 64° NNE 06:06:28 10° ESE daylight
23 Jun - 07:40:01 10° W 07:43:17 20° SW 07:46:32 10° S daylight
23 Jun - 21:45:40 10° SSE 21:48:17 15° SE 21:50:54 10° E visible
23 Jun - 23:24:53 10° SW 23:29:23 82° NW 23:33:51 10° NE visible
24 Jun - 01:07:53 10° WNW 01:11:26 23° NNW 01:14:58 10° NE visible
24 Jun - 02:51:29 10° NW 02:54:13 16° N 02:56:57 10° NE visible
24 Jun - 04:33:03 10° NW 04:36:53 28° NNE 04:40:42 10° E visible
24 Jun - 06:14:18 10° WNW 06:18:41 65° SW 06:23:05 10° SE daylight
24 Jun - 22:00:38 10° SSW 22:04:39 32° SE 22:08:38 10° ENE visible
24 Jun - 23:41:49 10° WSW 23:46:06 44° NNW 23:50:22 10° NE visible
25 Jun - 01:25:28 10° NW 01:28:30 18° N 01:31:31 10° NNE visible
25 Jun - 03:08:19 10° NNW 03:11:22 18° N 03:14:23 10° NE visible
25 Jun - 04:49:29 10° NW 04:53:44 45° NNE 04:58:00 10° ESE visible
25 Jun - 06:31:17 10° WNW 06:35:09 31° SW 06:39:03 10° SSE daylight
25 Jun - 22:16:40 10° SW 22:21:09 68° SE 22:25:34 10° ENE visible
25 Jun - 23:59:06 10° W 00:02:58 28° NNW 00:06:49 10° NE visible
26 Jun - 01:42:54 10° NW 01:45:39 16° N 01:48:22 10° NE visible
26 Jun - 03:24:53 10° NW 03:28:25 23° NNE 03:31:57 10° ENE visible
26 Jun - 05:06:01 10° NW 05:10:27 84° NE 05:14:52 10° SE visible
26 Jun - 06:49:07 10° W 06:51:31 14° SW 06:53:54 10° SSW daylight
26 Jun - 20:53:05 10° S 20:56:31 21° SE 20:59:55 10° E daylight
26 Jun - 22:33:18 10° WSW 22:37:46 62° NNW 22:42:12 10° NE visible
